BEIJING 1 1 28890U 05043A 26167.33021422 -.00000123 00000+0 -14087-4 0 9999 2 28890 98.2911 300.5375 0013362 286.5760 73.3974 14.63530630100523 HUANJING 1A (HJ-1A) 1 33320U 08041A 26167.28976441 .00000663 00000+0 85573-4 0 9993 2 33320 97.6675 153.1629 0019868 137.4334 222.8425 14.83983777958270 HUANJING 1B (HJ-1B) 1 33321U 08041B 26167.25843008 .00001059 00000+0 13415-3 0 9998 2 33321 97.6510 156.3070 0035967 184.0129 176.0802 14.83315939958270 YAOGAN-4 1 33446U 08061A 26167.29008013 .00000832 00000+0 10828-3 0 9994 2 33446 97.9308 100.8069 0015743 75.1335 285.1621 14.83198678945532 DEIMOS-1 1 35681U 09041A 26167.30462057 .00000333 00000+0 56247-4 0 9992 2 35681 97.7395 324.5700 0001568 131.4071 228.7274 14.75236440906758 UK-DMC 2 1 35683U 09041C 26167.34454208 .00000832 00000+0 12804-3 0 9991 2 35683 97.8837 302.3310 0001174 77.9600 282.1741 14.76026128906448 DMC3-FM1 1 40715U 15032A 26167.32983833 .00000910 00000+0 11069-3 0 9998 2 40715 97.6464 32.5391 0007097 61.9161 298.2772 14.85739977589789 DMC3-FM2 1 40716U 15032B 26167.28454646 -.00000008 00000+0 50104-5 0 9993 2 40716 97.6519 34.0685 0007631 65.7431 294.4581 14.85742373589779 DMC3-FM3 1 40717U 15032C 26167.24051921 .00000161 00000+0 24413-4 0 9991 2 40717 97.6569 35.7785 0006770 66.1785 294.0140 14.85730901589775